sat.trackr.live / text

‹ back to catalog

ZHONGXING-6D

NORAD 52255 · 2022-038A

PAYLOAD ACTIVE UNKNOWN

§ Identity

Operator
Country
PRC
Launch date
2022-04-15
Launch site
XICLF
Launch vehicle
Mass (kg)
RCS (m²)

Purposes: comms

External: N2YO · Heavens-Above · Gunter

§ Orbital elements

Epoch: 2026-05-24T23:29:23.102304Z

Period
1,436.12 min
Inclination
0.0079°
Eccentricity
0.0000696
Mean motion
1.00270187 rev/d
Perigee alt
35,784.1 km
Apogee alt
35,790.0 km
Semi-major
42,165.2 km
B*
0.0000e+0
RAAN
307.3650°
Arg perigee
70.8100°
Mean anomaly
341.8242°
Rev number
1,518

§ Raw data

ZHONGXING-6D1 52255U 22038A   26144.97873961 -.00000357  00000+0  00000+0 0  99952 52255   0.0079 307.3650 0000696  70.8100 341.8242  1.00270187 15183

JSON: /api/v1/satellites/52255 · /tle

For live sub-satellite position, see the globe view (requires WebGL).

§ Visibility from observer

Set your observer location to see the next 7 days of passes ≥ 10°. The values pass through the URL so the page stays shareable.

No JS? Fill the form by hand. The geolocation button needs JavaScript.